DLH245 LOWW-KBOS

Flight info

Callsign DLH245
Flight time N/A
Altitude 34000
Route OSMO2C/29 LUGEM DCT SUBEN/N0479F380 DCT GASKA DCT MASEK DCT TIVUN DCT ABNED L980 LAM L179 UGBET Q60 OKSAW DCT BIBPE DCT OKTAD DCT MEDOG DCT PEMOB DCT BAKUR DCT MALOT/M084F390 NATE RIKAL/N0484F400 N572A TOPPS DCT AJJAY OOSHN5
Aircraft A359/H-SDE2E3GHIJ3J4J5LM1ORWXY/LB1D1

Departure

Time 2026-04-24 19:14
Airport Vienna International Airport (LOWW)

Arrival

Time N/A
Airport Boston Logan International Airport (KBOS)
Time Latitude Longitude Altitude Speed Heading
2026-04-24 18:54 48.12011 16.56987 615 ft 4 kts 26°
2026-04-24 19:02 48.12000 16.56979 631 ft 4 kts 26°
2026-04-24 19:03 48.11977 16.56961 627 ft 2 kts 26°
2026-04-24 19:03 48.11959 16.56948 631 ft 4 kts 43°
2026-04-24 19:03 48.11949 16.56934 631 ft 4 kts 92°
2026-04-24 19:03 48.11954 16.56911 631 ft 4 kts 116°
2026-04-24 19:04 48.11966 16.56874 631 ft 4 kts 115°
2026-04-24 19:04 48.11968 16.56866 631 ft 4 kts 116°
2026-04-24 19:07 48.11936 16.56974 623 ft 16 kts 117°
2026-04-24 19:08 48.11872 16.57161 631 ft 22 kts 116°
2026-04-24 19:08 48.11786 16.57347 627 ft 22 kts 151°
2026-04-24 19:08 48.11639 16.57418 628 ft 23 kts 163°
2026-04-24 19:08 48.11487 16.57452 624 ft 22 kts 192°
2026-04-24 19:09 48.11343 16.57353 628 ft 23 kts 205°
2026-04-24 19:09 48.11284 16.57311 628 ft 0 kts 205°
2026-04-24 19:09 48.11255 16.57291 624 ft 10 kts 201°
2026-04-24 19:09 48.11179 16.57372 627 ft 20 kts 123°
2026-04-24 19:10 48.11103 16.57598 625 ft 28 kts 115°
2026-04-24 19:10 48.11006 16.57676 623 ft 6 kts 210°
2026-04-24 19:10 48.11003 16.57666 628 ft 0 kts 238°
2026-04-24 19:12 48.10996 16.57648 616 ft 6 kts 238°
2026-04-24 19:12 48.10952 16.57536 631 ft 17 kts 247°
2026-04-24 19:12 48.10965 16.57385 627 ft 0 kts 295°
2026-04-24 19:13 48.10966 16.57383 627 ft 3 kts 295°
2026-04-24 19:13 48.11124 16.56895 627 ft 80 kts 296°
2026-04-24 19:13 48.11452 16.55895 628 ft 133 kts 295°
2026-04-24 19:13 48.11915 16.54452 788 ft 163 kts 296°
2026-04-24 19:14 48.12283 16.52950 1554 ft 151 kts 282°
2026-04-24 19:14 48.12095 16.51413 2037 ft 162 kts 247°
2026-04-24 19:14 48.11235 16.50180 2366 ft 183 kts 212°
2026-04-24 19:14 48.10042 16.49375 2776 ft 194 kts 207°
2026-04-24 19:15 48.08753 16.48617 3204 ft 203 kts 205°
2026-04-24 19:15 48.07568 16.47426 3571 ft 208 kts 231°
2026-04-24 19:15 48.06555 16.45854 4087 ft 212 kts 230°
2026-04-24 19:15 48.05444 16.44303 4459 ft 226 kts 227°
2026-04-24 19:16 48.02908 16.40938 5133 ft 260 kts 226°
2026-04-24 19:16 48.01550 16.39167 5760 ft 265 kts 226°
2026-04-24 19:16 48.00155 16.37352 6500 ft 267 kts 225°
2026-04-24 19:17 47.98744 16.35515 7182 ft 272 kts 226°
2026-04-24 19:17 47.97447 16.33446 7815 ft 273 kts 241°
2026-04-24 19:17 47.96773 16.30856 8535 ft 267 kts 266°
2026-04-24 19:17 47.96901 16.28131 9301 ft 263 kts 289°
2026-04-24 19:18 47.97487 16.25546 10069 ft 265 kts 294°
2026-04-24 19:18 47.98150 16.22917 10534 ft 279 kts 293°
2026-04-24 19:18 47.98847 16.20110 10863 ft 297 kts 292°
2026-04-24 19:18 47.99566 16.17160 11183 ft 314 kts 292°
2026-04-24 19:19 48.00324 16.14020 11579 ft 327 kts 292°
2026-04-24 19:19 48.00752 16.12232 11864 ft 332 kts 292°